Home   Weather   37°34'N, 97°19'W   Past weeks
Flag for USA

Past Weather in 37°34'N, 97°19'W, USA — Yesterday and Last 2 Weeks

Now
75 °F

Passing clouds.


Feels Like: 76 °F
Forecast: 73 / 68 °F
Wind: 20 mph from South

Location: Wichita Mid-Continent Airport

Current Time: May 24, 2019 at 3:18:15 am

Latest Report: May 24, 2019 at 1:53 am


Visibility: 10 mi

Pressure: 29.83 "Hg

Humidity: 76%

Dew Point: 67 °F

Location of 37°34'N, 97°19'WLocation

Past Weather in 37°34'N, 97°19'W — Graph

°F

37°34'N, 97°19'W Temperature Yesterday

Maximum temperature yesterday: 81 °F (at 5:12 pm)
Minimum temperature yesterday: 63 °F (at 12:53 am)
Average temperature yesterday: 70 °F

High & Low Weather Summary for the Past Weeks

 TemperatureHumidityPressure
High88 °F (May 16, 2:53 pm)93% (May 21, 12:53 am)30.22 "Hg (May 21, 12:53 am)
Low44 °F (May 9, 7:53 am)35% (May 12, 2:53 pm)29.31 "Hg (May 21, 6:53 pm)
Average64 °F68%29.82 "Hg
* Reported May 9 1:53 am — May 24 1:53 am, 37°34'N, 97°19'W. Weather by CustomWeather, © 2019

Note: Actual official high and low records may vary slightly from our data, if they occured in-between our weather recording intervals... More about our weather records

Advertising

37°34'N, 97°19'W Weather History for the Previous 24 Hours

Scroll right to see more
 ConditionsComfort  
Time TempWeatherWind HumidityBarometerVisibility
1:53 am
Fri, May 24
75 °FPassing clouds.20 mph76%29.83 "Hg10 mi
12:53 am75 °FMostly cloudy.17 mph76%29.85 "Hg10 mi
11:53 pm
Thu, May 23
75 °FMostly cloudy.16 mph74%29.89 "Hg10 mi
10:53 pm75 °FMostly cloudy.15 mph74%29.89 "Hg10 mi
9:53 pm76 °FOvercast.15 mph74%29.88 "Hg10 mi
8:53 pm77 °FPartly cloudy.15 mph74%29.86 "Hg10 mi
7:53 pm78 °FBroken clouds.15 mph71%29.84 "Hg10 mi
6:53 pm78 °FMostly cloudy.13 mph74%29.84 "Hg10 mi
5:53 pm79 °FOvercast.15 mph72%29.86 "Hg10 mi
5:12 pm81 °FCloudy.17 mph69%29.91 "Hg10 mi
4:53 pm79 °FMostly cloudy.12 mph77%29.88 "Hg10 mi
3:53 pm77 °FBroken clouds.10 mph77%29.90 "Hg10 mi
3:15 pm76 °FMostly cloudy.13 mph77%29.96 "Hg10 mi
2:53 pm75 °FOvercast.12 mph76%29.93 "Hg10 mi
1:53 pm72 °FOvercast.9 mph76%29.96 "Hg10 mi
12:53 pm68 °FOvercast.12 mph78%29.99 "Hg10 mi
11:53 am66 °FOvercast.14 mph70%30.00 "Hg10 mi
10:53 am66 °FOvercast.16 mph61%30.00 "Hg10 mi
9:53 am65 °FLight rain. Overcast.14 mph61%30.01 "Hg10 mi
8:53 am64 °FOvercast.13 mph61%30.01 "Hg10 mi
7:53 am64 °FOvercast.15 mph58%30.00 "Hg10 mi
7:05 am63 °FOvercast.14 mph63%30.01 "Hg10 mi
6:53 am63 °FOvercast.13 mph65%29.98 "Hg10 mi
5:53 am63 °FPassing clouds.9 mph63%29.96 "Hg10 mi
4:53 am63 °FMostly cloudy.10 mph63%29.93 "Hg10 mi
3:53 am63 °FPassing clouds.9 mph63%29.92 "Hg10 mi
Weather by CustomWeather, © 2019

See weather overview